1500573600.98,23675,24.75,74236.8,11.13,-2.59,-2.43,0,*41
1500573602.23,23676,24.75,74238.0,11.13,-2.59,-2.47,0,*46
1500573603.48,23677,24.75,74236.5,11.13,-2.67,-2.47,0,*4A
1500573604.73,23678,24.75,74238.5,11.13,-2.59,-2.55,0,*4B
1500573605.98,23679,24.75,74238.0,11.13,-2.55,-2.59,0,*4A
1500573607.25,23680,24.75,74240.8,11.15,-2.51,-2.59,0,*4E
1500573608.53,23681,24.75,74238.0,11.15,-2.67,-2.75,0,*44
1500573609.77,23682,24.75,74236.5,11.15,-2.67,-2.79,0,*4B
1500573610.97,23683,24.75,74238.0,11.13,-2.79,-2.83,0,*46
1500573612.19,23684,24.75,74236.3,11.13,-2.71,-2.83,0,*49
1500573613.41,23685,24.75,74238.5,11.13,-2.71,-2.91,0,*4B
1500573614.63,23686,24.75,74240.5,11.13,-2.71,-2.91,0,*48
1500573615.85,23687,24.75,74240.3,11.13,-2.71,-2.91,0,*49
1500573617.07,23688,24.75,74240.0,11.13,-2.71,-2.91,0,*46
1500573618.29,23689,24.75,74238.8,11.13,-2.67,-2.91,0,*40
1500573619.52,23690,24.75,74238.0,11.13,-2.71,-2.95,0,*4B
1500573620.73,23691,24.75,74238.5,11.13,-2.71,-2.91,0,*4E
1500573621.96,23692,24.75,74240.5,11.15,-2.79,-2.99,0,*4B
1500573623.16,23693,24.75,74242.0,11.13,-2.83,-3.07,0,*4F
1500573624.35,23694,24.75,74236.8,11.13,-2.95,-3.23,0,*49
1500573625.57,23695,24.75,74238.0,11.15,-2.99,-3.15,0,*47
1500573626.76,23696,24.75,74236.8,11.13,-3.07,-3.23,0,*41
1500573627.99,23697,24.75,74240.8,11.15,-2.99,-3.11,0,*41
1500573629.18,23698,24.75,74238.8,11.13,-2.91,-3.07,0,*47
1500573630.37,23699,24.75,74242.0,11.13,-2.91,-3.15,0,*45
1500573631.57,23700,24.75,74236.3,11.13,-2.95,-3.19,0,*4C
1500573632.77,23701,24.75,74236.8,11.13,-3.03,-3.31,0,*49
1500573633.99,23702,24.75,74236.5,11.15,-2.99,-3.11,0,*4C
1500573635.18,23703,24.75,74240.5,11.13,-3.03,-3.15,0,*4D
1500573636.4,23704,24.75,74242.3,11.15,-2.91,-3.11,0,*42
1500573637.62,23705,24.75,74238.0,11.15,-2.91,-3.15,0,*47
1500573638.84,23706,24.75,74240.0,11.15,-2.99,-3.15,0,*4C
1500573640.07,23707,24.75,74238.0,11.15,-2.99,-3.11,0,*49
1500573641.26,23708,24.75,74238.0,11.13,-2.91,-3.15,0,*4C
1500573642.45,23709,24.75,74242.3,11.13,-2.91,-3.15,0,*4D
1500573643.65,23710,24.75,74238.5,11.13,-2.87,-2.99,0,*47
1500573644.84,23711,24.75,74236.3,11.13,-2.83,-3.03,0,*40
1500573646.04,23712,24.75,74238.0,11.13,-2.79,-2.91,0,*4C
1500573647.25,23713,24.75,74240.3,11.13,-2.67,-2.79,0,*44
1500573648.53,23714,24.75,74238.3,11.15,-2.63,-2.75,0,*4D
1500573649.75,23715,24.75,74236.3,11.13,-2.67,-2.79,0,*42
1500573651.0,23716,24.75,74242.0,11.13,-2.59,-2.71,0,*44
1500573652.25,23717,24.75,74242.3,11.13,-2.51,-2.67,0,*4A
1500573653.5,23718,24.75,74238.0,11.13,-2.55,-2.67,0,*41
1500573654.78,23719,24.75,74236.5,11.15,-2.51,-2.55,0,*43
1500573656.04,23720,24.75,74236.5,11.13,-2.47,-2.47,0,*4B
1500573657.24,23721,24.75,74236.3,11.13,-2.31,-2.43,0,*4F
1500573658.43,23722,24.75,74238.5,11.13,-2.27,-2.27,0,*49
1500573659.65,23723,24.75,74240.0,11.13,-2.07,-2.19,0,*47
1500573660.88,23724,24.75,74236.8,11.13,-2.07,-2.15,0,*4C
1500573662.11,23725,24.75,74240.0,11.13,-2.07,-2.19,0,*41
1500573663.36,23726,24.75,74236.5,11.13,-2.03,-2.07,0,*49
1500573664.6,23727,24.75,74240.5,11.13,-1.91,-1.95,0,*48
1500573665.84,23728,24.75,74236.0,11.13,-1.83,-1.95,0,*44
1500573667.05,23729,24.75,74240.0,11.13,-1.67,-1.71,0,*45
1500573668.25,23730,24.75,74238.8,11.13,-1.59,-1.71,0,*40
1500573669.44,23731,24.75,74240.5,11.13,-1.51,-1.55,0,*4F
1500573670.69,23732,24.75,74236.3,11.13,-1.39,-1.39,0,*48
1500573671.93,23733,24.75,74238.0,11.13,-1.17,-1.39,0,*45
1500573673.13,23734,24.75,74240.0,11.13,-1.17,-1.21,0,*4B
1500573674.34,23735,24.75,74238.0,11.13,-1.17,-1.21,0,*4A
1500573675.59,23736,24.75,74238.5,11.13,-1.05,-1.09,0,*40
1500573676.83,23737,24.75,74242.5,11.13,-0.93,-1.05,0,*73
1500573678.04,23738,24.75,74240.5,11.15,-0.61,-0.65,0,*40
1500573679.23,23739,24.75,74238.8,11.13,-0.65,-0.69,0,*4F
1500573680.44,23740,24.75,74238.5,11.15,-0.49,-0.61,0,*41
1500573681.62,23741,24.75,74240.3,11.13,-0.45,-0.65,0,*4E
1500573682.85,23742,24.75,74240.5,11.15,-0.41,-0.49,0,*41
1500573684.04,23743,24.75,74242.0,11.13,-0.33,-0.41,0,*4B
1500573685.26,23744,24.75,74242.5,11.15,-0.19,-0.29,0,*4C
1500573686.47,23745,24.75,74240.0,11.13,-0.11,-0.23,0,*49
1500573687.66,23746,24.75,74238.0,11.13,-0.07,-0.19,0,*74
1500573688.86,23747,24.75,74238.3,11.13,-0.07,-0.23,0,*7C
1500573690.05,23748,24.75,74242.5,11.13,0.05,-0.19,0,*55
1500573691.23,23749,24.75,74236.8,11.13,0.09,-0.11,0,*50
1500573692.41,23750,24.75,74238.3,11.13,0.09,-0.19,0,*50
1500573693.64,23751,24.75,74238.3,11.15,0.33,0.05,0,*7E
1500573694.83,23752,24.75,74238.8,11.13,0.33,0.05,0,*7B
1500573696.05,23753,24.75,74242.5,11.15,0.37,0.01,0,*7C
1500573697.22,23754,24.75,74242.8,11.13,0.43,0.05,0,*7A
1500573698.48,23755,24.75,74242.3,11.15,0.59,0.21,0,*40
1500573699.72,23756,24.75,74242.3,11.15,0.67,0.21,0,*4E
1500573700.97,23757,24.75,74236.8,11.15,0.59,0.13,0,*43
1500573702.22,23758,24.75,74236.5,11.15,0.67,0.21,0,*40
1500573703.48,23759,24.75,74240.3,11.15,0.79,0.13,0,*4F
1500573704.73,23760,24.75,74242.3,11.15,0.83,0.21,0,*41
1500573705.97,23761,24.75,74238.5,11.15,0.97,0.21,0,*45
1500573707.2,23762,24.75,74242.3,11.15,1.05,0.25,0,*78
1500573708.44,23763,24.75,74240.5,11.15,1.05,0.25,0,*79
1500573709.7,23764,24.75,74238.8,11.15,1.17,0.25,0,*7D
1500573710.97,23765,24.75,74238.5,11.15,1.21,0.25,0,*79
1500573712.24,23766,24.75,74240.3,11.15,1.21,0.21,0,*7E
1500573713.5,23767,24.75,74240.0,11.15,1.33,0.25,0,*78
1500573714.76,23768,24.75,74238.0,11.15,1.51,0.33,0,*74
1500573716.01,23769,24.75,74238.5,11.15,1.51,0.25,0,*72
1500573717.27,23770,24.75,74242.0,11.15,1.63,0.25,0,*7B
1500573718.53,23771,24.75,74238.0,11.15,1.63,0.25,0,*7A
1500573719.76,23772,24.75,74242.3,11.15,1.83,0.37,0,*74
1500573720.97,23773,24.75,74240.5,11.17,1.93,0.43,0,*75
1500573722.21,23774,24.75,74236.8,11.17,2.05,0.47,0,*7A
1500573723.44,23775,24.75,74242.3,11.17,2.13,0.37,0,*7B
1500573724.67,23776,24.75,74238.8,11.17,2.01,0.33,0,*7F
1500573725.9,23777,24.75,74238.8,11.17,2.05,0.25,0,*7D
1500573727.13,23778,24.75,74238.3,11.17,2.17,0.25,0,*71
1500573728.39,23779,24.75,74240.8,11.15,2.25,0.25,0,*73
1500573729.62,23780,24.75,74240.3,11.15,2.35,0.25,0,*74
1500573730.88,23781,24.75,74240.0,11.15,2.39,0.25,0,*79
1500573732.14,23782,24.75,74242.0,11.15,2.51,0.25,0,*74
1500573733.37,23783,24.75,74238.0,11.17,2.51,0.25,0,*77
1500573734.61,23784,24.75,74242.3,11.17,2.51,0.21,0,*74
1500573735.82,23785,24.75,74242.5,11.17,2.65,0.25,0,*76
1500573737.07,23786,24.75,74240.0,11.15,2.85,0.25,0,*79
1500573738.32,23787,24.75,74240.3,11.15,2.77,0.33,0,*72
1500573739.58,23788,24.75,74238.8,11.15,2.85,0.21,0,*73
1500573740.81,23789,24.75,74238.8,11.15,2.95,0.25,0,*77
1500573742.04,23790,24.75,74240.0,11.15,2.95,0.25,0,*7F
1500573743.28,23791,24.75,74240.8,11.15,2.99,0.25,0,*72
1500573744.54,23792,24.75,74242.0,11.15,3.07,0.33,0,*70
1500573745.8,23793,24.75,74238.5,11.15,3.11,0.25,0,*71
1500573747.05,23794,24.75,74242.5,11.15,3.19,0.33,0,*79
1500573748.28,23795,24.75,74244.5,11.13,3.19,0.21,0,*7D
1500573749.54,23796,24.75,74236.3,11.15,3.23,0.25,0,*75
1500573750.77,23797,24.75,74240.5,11.17,3.33,0.25,0,*77
1500573751.99,23798,24.75,74240.3,11.17,3.33,0.25,0,*78
1500573753.23,23799,24.75,74242.8,11.17,3.37,0.21,0,*79
1500573754.46,23800,24.75,74238.5,11.17,3.37,0.21,0,*76
1500573755.69,23801,24.75,74242.8,11.17,3.49,0.13,0,*7F
1500573756.94,23802,24.75,74240.8,11.19,3.53,0.25,0,*7C
1500573758.17,23803,24.75,74240.8,11.17,3.49,0.13,0,*7D
1500573759.4,23804,24.75,74242.8,11.17,3.49,0.13,0,*7A
1500573760.6,23805,24.75,74240.5,11.17,3.45,0.09,0,*4C
1500573761.81,23806,24.75,74242.0,11.17,3.49,0.05,0,*4F
1500573763.01,23807,24.75,74238.8,11.15,3.55,0.09,0,*4D
1500573764.22,23808,24.75,74242.3,11.15,3.55,0.05,0,*4E
1500573765.47,23809,24.75,74242.5,11.15,3.71,0.13,0,*7E
1500573766.71,23810,24.75,74240.5,11.17,3.71,0.13,0,*74
1500573767.92,23811,24.75,74244.3,11.17,3.67,0.09,0,*49
1500573769.13,23812,24.75,74240.0,11.17,3.67,0.05,0,*46
1500573770.34,23813,24.75,74240.8,11.17,3.71,0.05,0,*40
1500573771.55,23814,24.75,74240.5,11.17,3.71,-0.07,0,*68
1500573772.79,23815,24.75,74242.3,11.15,3.79,-0.07,0,*63
1500573774.03,23816,24.75,74240.5,11.15,3.79,-0.03,0,*64
1500573775.24,23817,24.75,74240.0,11.15,3.81,-0.03,0,*62
1500573776.46,23818,24.75,74236.5,11.15,3.89,0.05,0,*4E
1500573777.64,23819,24.75,74242.5,11.17,3.93,0.09,0,*4A
1500573778.83,23820,24.75,74240.0,11.17,3.93,0.05,0,*4C
1500573780.01,23821,24.75,74240.3,11.17,3.93,0.05,0,*4D
1500573781.22,23822,24.75,74238.3,11.17,3.97,0.05,0,*4A
1500573782.43,23823,24.75,74242.8,11.17,4.05,0.05,0,*47
1500573783.62,23824,24.75,74238.5,11.17,4.07,0.05,0,*42
1500573784.83,23825,24.75,74240.3,11.17,4.05,-0.07,0,*6E
1500573786.02,23826,24.75,74240.8,11.17,4.07,-0.03,0,*6B
1500573787.2,23827,24.75,74236.3,11.17,4.15,0.05,0,*42
1500573788.41,23828,24.75,74236.5,11.19,4.11,0.01,0,*43
1500573789.63,23829,24.75,74242.0,11.17,4.05,-0.07,0,*62
1500573790.81,23830,24.75,74240.0,11.17,4.19,-0.07,0,*67
1500573792.0,23831,24.75,74242.8,11.17,4.19,-0.03,0,*62
1500573793.18,23832,24.75,74244.0,11.17,4.19,-0.07,0,*65
1500573794.37,23833,24.75,74242.0,11.17,4.19,-0.19,0,*5B
1500573795.56,23834,24.75,74240.5,11.17,4.27,-0.07,0,*6E
1500573796.75,23835,24.75,74242.8,11.17,4.27,-0.19,0,*50
1500573797.99,23836,24.75,74240.5,11.17,4.31,-0.27,0,*59
1500573799.18,23837,24.75,74242.0,11.17,4.19,-0.19,0,*5F
1500573800.38,23838,24.75,74236.0,11.17,4.37,-0.19,0,*5C
1500573801.57,23839,24.75,74238.3,11.17,4.37,-0.19,0,*5D
1500573802.77,23840,24.75,74240.5,11.17,4.37,-0.19,0,*53
1500573803.96,23841,24.75,74240.3,11.17,4.53,-0.07,0,*6F
1500573805.17,23842,24.75,74240.5,11.17,4.59,-0.07,0,*66
1500573806.36,23843,24.75,74238.5,11.13,4.57,-0.19,0,*52
1500573807.61,23844,24.75,74240.0,11.15,4.59,-0.19,0,*5D
1500573808.85,23845,24.75,74240.5,11.15,4.59,-0.19,0,*5C
1500573810.07,23846,24.75,74238.8,11.17,4.59,-0.19,0,*5D
1500573811.34,23847,24.75,74238.8,11.15,4.59,-0.27,0,*53
1500573812.58,23848,24.75,74238.3,11.17,4.59,-0.27,0,*5E
1500573813.79,23849,24.75,74242.3,11.17,4.59,-0.19,0,*52
1500573815.06,23850,24.75,74240.3,11.15,4.67,-0.27,0,*58
1500573816.29,23851,24.75,74238.0,11.15,4.63,-0.29,0,*53
1500573817.54,23852,24.75,74242.3,11.15,4.63,-0.37,0,*5F
1500573818.78,23853,24.75,74240.3,11.15,4.63,-0.37,0,*5E
1500573820.02,23854,24.75,74242.0,11.15,4.67,-0.37,0,*5D
1500573821.24,23855,24.75,74242.5,11.17,4.67,-0.37,0,*5E
1500573822.46,23856,24.75,74240.3,11.17,4.67,-0.37,0,*5D
1500573823.7,23857,24.75,74240.5,11.15,4.67,-0.37,0,*5E
1500573824.95,23858,24.75,74242.0,11.15,4.67,-0.41,0,*50
1500573826.19,23859,24.75,74240.5,11.15,4.63,-0.41,0,*55
1500573827.44,23860,24.75,74242.0,11.15,4.79,-0.41,0,*54
1500573828.65,23861,24.75,74238.8,11.17,4.63,-0.53,0,*5F
1500573829.89,23862,24.75,74242.0,11.15,4.67,-0.53,0,*5A
1500573831.1,23863,24.75,74242.3,11.13,4.63,-0.57,0,*5D
1500573832.31,23864,24.75,74240.0,11.17,4.79,-0.61,0,*50
1500573833.52,23865,24.75,74240.3,11.17,4.75,-0.61,0,*5D
1500573834.74,23866,24.75,74240.3,11.13,4.71,-0.65,0,*5A
1500573835.97,23867,24.75,74236.3,11.15,4.67,-0.65,0,*5A
1500573837.2,23868,24.75,74240.5,11.13,4.67,-0.93,0,*5A
1500573838.47,23869,24.75,74242.0,11.15,4.67,-0.89,0,*56
1500573839.68,23870,24.75,74242.5,11.15,4.85,-0.65,0,*50
1500573840.86,23871,24.75,74240.3,11.13,4.85,-0.69,0,*5B
1500573842.07,23872,24.75,74240.0,11.15,4.89,-0.65,0,*5E
1500573843.26,23873,24.75,74240.5,11.13,4.81,-0.81,0,*5B
1500573844.5,23874,24.75,74242.8,11.15,4.97,-0.77,0,*54
1500573845.74,23875,24.75,74244.0,11.15,4.85,-0.93,0,*5C
1500573846.98,23876,24.75,74240.5,11.15,4.89,-1.01,0,*69
1500573848.23,23877,24.75,74236.8,11.13,4.93,-1.05,0,*61
1500573849.5,23878,24.75,74242.3,11.15,4.93,-1.05,0,*68
1500573850.77,23879,24.75,74238.3,11.15,5.01,-1.05,0,*63
1500573851.99,23880,24.75,74242.0,11.13,4.97,-1.17,0,*6E
1500573853.26,23881,24.75,74242.3,11.15,4.97,-1.13,0,*6D
1500573854.47,23882,24.75,74242.5,11.15,4.89,-1.29,0,*68
1500573855.72,23883,24.75,74242.8,11.15,4.85,-1.39,0,*64
1500573856.91,23884,24.75,74242.5,11.13,4.85,-1.33,0,*6F
1500573858.12,23885,24.75,74240.3,11.13,4.97,-1.33,0,*6D
1500573859.37,23886,24.75,74242.0,11.13,4.93,-1.43,0,*6D
1500573860.62,23887,24.75,74240.8,11.13,4.97,-1.43,0,*68
1500573861.83,23888,24.75,74240.8,11.13,4.97,-1.55,0,*60
1500573863.05,23889,24.75,74240.3,11.13,5.01,-1.59,0,*63
1500573864.27,23890,24.75,74240.8,11.13,4.97,-1.71,0,*6F
1500573865.5,23891,24.75,74240.5,11.13,5.05,-1.71,0,*64
1500573866.75,23892,24.75,74240.5,11.07,5.05,-1.63,0,*61
1500573867.97,23893,24.75,74240.5,11.11,5.15,-1.67,0,*62
1500573869.18,23894,24.75,74242.0,11.11,5.15,-1.67,0,*65
1500573870.41,23895,24.75,74242.8,11.11,5.19,-1.71,0,*6F
1500573871.66,23896,24.75,74240.3,11.11,5.19,-1.91,0,*62
1500573872.91,23897,24.75,74240.0,11.11,5.19,-1.91,0,*63
1500573874.15,23898,24.75,74240.5,11.11,5.19,-1.95,0,*68
1500573875.39,23899,24.75,74242.8,11.11,5.15,-2.03,0,*69
1500573876.64,23900,24.75,74240.3,11.11,5.19,-2.07,0,*60
1500573877.86,23901,24.75,74240.0,11.11,5.19,-2.15,0,*62
1500573879.09,23902,24.75,74240.0,11.11,5.19,-2.15,0,*61
1500573880.32,23903,24.75,74238.3,11.11,5.27,-2.15,0,*6D
1500573881.53,23904,24.75,74240.5,11.11,5.29,-2.19,0,*68
1500573882.75,23905,24.75,74242.5,11.07,5.29,-2.35,0,*60
1500573883.97,23906,24.75,74240.5,11.07,5.23,-2.35,0,*69
1500573885.2,23907,24.75,74242.5,11.11,5.27,-2.35,0,*6B
1500573886.46,23908,24.75,74240.5,11.11,5.27,-2.59,0,*6E
1500573887.73,23909,24.75,74242.0,11.11,5.27,-2.55,0,*63
1500573888.97,23910,24.75,74242.3,11.07,5.23,-2.75,0,*6A
1500573890.22,23911,24.75,74240.5,11.07,5.23,-2.71,0,*6F
1500573891.48,23912,24.75,74242.0,11.11,5.27,-2.71,0,*6F
1500573892.7,23913,24.75,74240.8,11.07,5.23,-2.87,0,*64
1500573893.92,23914,24.75,74242.5,11.07,5.23,-2.87,0,*63
1500573895.14,23915,24.75,74240.5,11.07,5.23,-2.87,0,*62
1500573896.37,23916,24.75,74242.0,11.11,5.27,-2.91,0,*65
1500573897.61,23917,24.75,74240.0,11.11,5.27,-2.95,0,*60
1500573898.82,23918,24.75,74242.8,11.07,5.11,-3.23,0,*61
1500573900.04,23919,24.75,74240.0,11.11,5.07,-3.35,0,*67
1500573901.28,23920,24.75,74242.0,11.07,5.05,-3.39,0,*64
1500573902.55,23921,24.75,74240.3,11.11,5.05,-3.43,0,*6F
1500573903.78,23922,24.75,74242.0,11.11,5.07,-3.47,0,*6A
1500573905.05,23923,24.75,74242.3,11.07,5.01,-3.59,0,*65
1500573906.32,23924,24.75,74240.5,11.07,5.01,-3.59,0,*62
1500573907.59,23925,24.75,74242.3,11.07,5.05,-3.63,0,*6E
1500573908.83,23926,24.75,74240.8,11.05,5.01,-3.67,0,*6F
1500573910.09,23927,24.75,74242.0,11.07,5.05,-3.63,0,*6C
1500573911.31,23928,24.75,74242.0,11.05,4.97,-3.75,0,*6C
1500573912.53,23929,24.75,74244.0,11.05,4.85,-4.01,0,*6A
1500573913.72,23930,24.75,74242.8,11.05,4.85,-4.09,0,*6A
1500573914.92,23931,24.75,74240.3,11.05,4.89,-4.17,0,*68
1500573916.11,23932,24.75,74242.0,11.05,4.85,-4.17,0,*67
1500573917.36,23933,24.75,74242.8,11.03,4.79,-4.21,0,*66
1500573918.58,23934,24.75,74240.8,11.05,4.75,-4.33,0,*68
1500573919.8,23935,24.75,74240.5,11.05,4.75,-4.41,0,*6C
1500573921.04,23936,24.75,74238.5,11.03,4.75,-4.41,0,*69
1500573922.26,23937,24.75,74240.5,11.05,4.63,-4.45,0,*6D
1500573923.48,23938,24.75,74240.3,11.05,4.63,-4.53,0,*65
1500573924.7,23939,24.75,74242.5,11.03,4.57,-4.65,0,*60
1500573925.92,23940,24.75,74244.5,11.05,4.57,-4.69,0,*64
1500573927.17,23941,24.75,74240.0,11.03,4.53,-4.81,0,*61
1500573928.4,23942,24.75,74242.3,11.05,4.53,-4.85,0,*60
1500573929.64,23943,24.75,74242.5,11.03,4.41,-4.93,0,*63
1500573930.86,23944,24.75,74244.8,11.03,4.41,-4.99,0,*6E
1500573932.08,23945,24.75,74240.8,11.05,4.41,-5.11,0,*68
1500573933.33,23946,24.75,74244.0,11.03,4.41,-5.07,0,*6A
1500573934.56,23947,24.75,74236.8,11.05,4.37,-5.11,0,*6B
1500573935.81,23948,24.75,74244.3,11.03,4.37,-5.11,0,*62
1500573937.06,23949,24.75,74238.0,11.03,4.37,-5.11,0,*63
1500573938.32,23950,24.75,74240.0,11.03,4.27,-5.23,0,*6B
1500573939.54,23951,24.75,74242.3,11.03,4.19,-5.35,0,*60
1500573940.76,23952,24.75,74240.3,11.03,4.11,-5.35,0,*6B
1500573941.95,23953,24.75,74246.3,11.01,4.11,-5.39,0,*64
1500573943.17,23954,24.75,74240.5,11.01,4.05,-5.47,0,*6F
1500573944.39,23955,24.75,74238.3,11.01,4.01,-5.51,0,*6D
1500573945.6,23956,24.75,74242.3,11.01,3.81,-5.77,0,*65
1500573946.84,23957,24.75,74240.8,11.01,3.75,-5.81,0,*66
1500573948.09,23958,24.75,74240.3,11.01,3.75,-5.93,0,*6A
1500573949.34,23959,24.75,74240.0,11.01,3.75,-5.81,0,*68
1500573950.59,23960,24.75,74240.5,11.01,3.75,-5.89,0,*6A
1500573951.84,23961,24.75,74240.5,11.01,3.75,-5.89,0,*6B
1500573953.07,23962,24.75,74240.8,10.99,3.67,-6.05,0,*6C
1500573954.25,23963,24.75,74242.3,11.01,3.63,-6.01,0,*6D
1500573955.46,23964,24.75,74244.0,11.01,3.53,-6.13,0,*6A
1500573956.66,23965,24.75,74242.8,10.99,3.55,-6.05,0,*6A
1500573957.84,23966,24.75,74240.0,11.01,3.55,-6.13,0,*6E
1500573959.08,23967,24.75,74242.3,11.01,3.53,-6.19,0,*63
1500573960.33,23968,24.75,74242.3,10.99,3.45,-6.27,0,*66
1500573961.54,23969,24.75,74240.3,10.99,3.29,-6.43,0,*6F
1500573962.74,23970,24.75,74242.0,10.99,3.29,-6.43,0,*67
1500573963.95,23971,24.75,74242.5,10.99,3.29,-6.39,0,*6B
1500573965.17,23972,24.75,74240.3,10.99,3.33,-6.39,0,*63
1500573966.36,23973,24.75,74242.3,10.97,3.29,-6.43,0,*6A
1500573967.54,23974,24.75,74242.3,10.97,3.25,-6.43,0,*61
1500573968.72,23975,24.75,74242.3,10.97,3.29,-6.47,0,*68
1500573969.95,23976,24.75,74240.5,10.99,3.23,-6.59,0,*60
1500573971.16,23977,24.75,74246.0,10.97,3.03,-6.73,0,*65
1500573972.37,23978,24.75,74240.3,10.97,3.03,-6.77,0,*6E
1500573973.58,23979,24.75,74240.5,10.97,3.07,-6.73,0,*6F
1500573974.76,23980,24.69,74238.5,10.97,2.91,-6.77,0,*63
1500573975.94,23981,24.75,74240.5,10.97,2.91,-6.89,0,*63
1500573977.17,23982,24.75,74242.8,10.95,2.89,-6.89,0,*6B
1500573978.36,23983,24.75,74242.8,10.97,2.91,-6.89,0,*61
1500573979.59,23984,24.75,74240.5,10.97,2.81,-6.97,0,*68
1500573980.82,23985,24.75,74242.5,10.95,2.73,-7.15,0,*6D
1500573982.05,23986,24.75,74242.8,10.95,2.61,-7.31,0,*6B
1500573983.31,23987,24.75,74244.0,10.95,2.43,-7.31,0,*6A
1500573984.57,23988,24.75,74240.8,10.95,2.55,-7.31,0,*62
1500573985.81,23989,24.75,74246.5,10.95,2.65,-7.31,0,*60
1500573987.08,23990,24.75,74240.5,10.95,2.51,-7.43,0,*6A
1500573988.34,23991,24.75,74242.8,10.95,2.43,-7.43,0,*68
1500573989.61,23992,24.75,74240.5,10.95,2.39,-7.61,0,*66
1500573990.85,23993,24.75,74240.0,10.95,2.31,-7.61,0,*6F
1500573992.08,23994,24.75,74240.3,10.95,2.39,-7.49,0,*6A
1500573993.32,23995,24.75,74240.0,10.95,2.31,-7.69,0,*61
1500573994.55,23996,24.75,74240.0,10.93,2.25,-7.77,0,*6E
1500573995.76,23997,24.75,74242.5,10.93,2.27,-7.73,0,*69
1500573996.97,23998,24.75,74240.3,10.93,2.27,-7.73,0,*66
1500573998.2,23999,24.75,74242.0,10.93,2.25,-7.91,0,*69
1500573999.4,24000,24.75,74242.5,10.93,2.25,-7.87,0,*60
1500574000.61,24001,24.75,74242.0,10.93,2.25,-7.87,0,*61
1500574001.85,24002,24.75,74240.8,10.91,2.17,-7.87,0,*61
1500574003.12,24003,24.75,74242.0,10.91,2.17,-7.99,0,*6F
1500574004.38,24004,24.75,74240.5,10.91,2.17,-7.99,0,*68
1500574005.63,24005,24.75,74240.0,10.91,2.25,-8.03,0,*64
1500574006.89,24006,24.75,74246.0,10.91,2.17,-8.11,0,*65
1500574008.12,24007,24.75,74240.8,10.91,2.09,-8.17,0,*6D
1500574009.35,24008,24.75,74242.0,10.91,2.13,-8.25,0,*68
1500574010.59,24009,24.75,74242.8,10.91,1.97,-8.41,0,*64
1500574011.82,24010,24.75,74244.3,10.91,1.97,-8.45,0,*68
1500574013.06,24011,24.75,74240.3,10.91,1.97,-8.41,0,*6D
1500574014.28,24012,24.75,74242.3,10.91,1.85,-8.55,0,*68
1500574015.52,24013,24.75,74244.0,10.91,1.85,-8.59,0,*65
1500574016.69,24014,24.75,74242.3,10.89,1.75,-8.63,0,*6D
1500574017.87,24015,24.75,74242.3,10.89,1.83,-8.71,0,*66
1500574019.04,24016,24.75,74242.5,10.89,1.75,-8.75,0,*68
1500574020.25,24017,24.75,74240.8,10.89,1.71,-8.97,0,*61
1500574021.45,24018,24.75,74244.0,10.85,1.59,-9.05,0,*62
1500574022.68,24019,24.75,74242.0,10.85,1.47,-9.15,0,*6D
1500574023.88,24020,24.75,74242.8,10.85,1.47,-9.19,0,*6B
1500574025.08,24021,24.75,74242.5,10.85,1.43,-9.31,0,*64
1500574026.26,24022,24.69,74242.0,10.89,1.41,-9.27,0,*6E
1500574027.47,24023,24.75,74244.8,10.85,1.37,-9.31,0,*65
1500574028.71,24024,24.75,74242.3,10.85,1.37,-9.37,0,*64
1500574029.95,24025,24.69,74242.3,10.85,1.33,-9.49,0,*68
1500574031.19,24026,24.75,74244.3,10.85,1.21,-9.49,0,*68
1500574032.45,24027,24.75,74242.0,10.83,1.21,-9.61,0,*65
1500574033.69,24028,24.75,74244.0,10.83,1.17,-9.75,0,*6A
1500574034.91,24029,24.75,74244.5,10.83,0.97,-10.01,0,*69
1500574036.12,24030,24.75,74242.8,10.83,0.97,-10.01,0,*61
1500574037.34,24031,24.75,74240.5,10.83,0.97,-10.01,0,*60
1500574038.55,24032,24.75,74242.0,10.83,0.97,-10.09,0,*6B
1500574039.76,24033,24.75,74242.8,10.81,0.79,-10.19,0,*69
1500574040.97,24034,24.75,74242.0,10.81,0.83,-10.27,0,*66
1500574042.18,24035,24.75,74242.8,10.81,0.71,-10.31,0,*6D
1500574043.38,24036,24.75,74242.3,10.81,0.67,-10.45,0,*6A
1500574044.61,24037,24.75,74240.3,10.83,0.63,-10.57,0,*6E
1500574045.86,24038,24.75,74242.8,10.79,0.47,-10.71,0,*66
1500574047.09,24039,24.75,74240.3,10.81,0.47,-10.71,0,*60
1500574048.32,24040,24.75,74240.5,10.79,0.43,-10.75,0,*69
1500574049.51,24041,24.69,74238.3,10.79,0.43,-10.85,0,*67
1500574050.71,24042,24.69,74242.3,10.77,0.37,-10.93,0,*6E
1500574051.95,24043,24.75,74242.3,10.79,0.21,-11.01,0,*6C
1500574053.17,24044,24.75,74242.0,10.79,0.17,-11.11,0,*6F
1500574054.36,24045,24.75,74242.3,10.77,0.05,-11.33,0,*53
1500574055.6,24046,24.69,74242.5,10.79,0.05,-11.29,0,*55
1500574056.77,24047,24.75,74240.3,10.77,-0.07,-11.45,0,*7F
1500574057.98,24048,24.69,74240.3,10.77,-0.03,-11.55,0,*75
1500574059.21,24049,24.75,74240.0,10.77,-0.23,-11.73,0,*42
1500574060.42,24050,24.75,74242.5,10.77,-0.19,-11.73,0,*43
1500574061.66,24051,24.75,74240.5,10.79,-0.19,-11.73,0,*4C
1500574062.91,24052,24.75,74246.0,10.75,-0.41,-11.89,0,*4B
1500574064.12,24053,24.75,74244.0,10.77,-0.57,-11.97,0,*40
1500574065.3,24054,24.75,74242.5,10.77,-0.57,-12.03,0,*49
1500574066.52,24055,24.75,74244.0,10.77,-0.69,-12.07,0,*41
1500574067.75,24056,24.75,74242.8,10.75,-0.85,-12.25,0,*42
1500574069.03,24057,24.75,74244.3,10.75,-0.97,-12.35,0,*41
1500574070.24,24058,24.69,74242.8,10.73,-0.97,-12.47,0,*4D
1500574071.49,24059,24.69,74240.8,10.75,-1.13,-12.47,0,*77
1500574072.75,24060,24.75,74242.5,10.75,-1.13,-12.65,0,*7D
1500574074.02,24061,24.75,74240.8,10.75,-1.35,-12.75,0,*79
1500574075.3,24062,24.75,74244.0,10.75,-1.47,-12.79,0,*73
1500574076.51,24063,24.75,74246.3,10.73,-1.51,-12.79,0,*73
1500574077.73,24064,24.69,74242.8,10.75,-1.51,-12.93,0,*76
1500574078.92,24065,24.75,74240.5,10.73,-1.63,-12.93,0,*70
1500574080.12,24066,24.75,74242.0,10.73,-1.71,-12.93,0,*70
1500574081.35,24067,24.75,74240.8,10.75,-1.75,-13.01,0,*79
1500574082.58,24068,24.75,74244.3,10.73,-1.87,-13.19,0,*74
1500574083.81,24069,24.75,74246.0,10.73,-1.99,-13.19,0,*7A
1500574085.05,24070,24.75,74240.0,10.71,-2.19,-13.37,0,*77
1500574086.27,24071,24.69,74242.3,10.71,-2.27,-13.51,0,*7B
1500574087.48,24072,24.75,74242.3,10.71,-2.39,-13.51,0,*77
1500574088.67,24073,24.75,74242.8,10.69,-2.43,-13.65,0,*75
1500574089.89,24074,24.75,74240.8,10.69,-2.51,-13.55,0,*72
1500574091.11,24075,24.69,74240.8,10.69,-2.63,-13.65,0,*71
1500574092.33,24076,24.69,74240.8,10.69,-2.67,-13.65,0,*76
1500574093.51,24077,24.69,74240.8,10.69,-2.83,-13.69,0,*71
1500574094.72,24078,24.75,74242.5,10.69,-2.91,-13.79,0,*7C
1500574095.94,24079,24.75,74242.8,10.69,-2.95,-13.79,0,*79
1500574097.13,24080,24.75,74240.5,10.69,-3.07,-13.93,0,*71
1500574098.32,24081,24.75,74240.5,10.69,-3.27,-13.93,0,*72
1500574099.55,24082,24.69,74242.5,10.69,-3.31,-14.01,0,*7A
1500574100.8,24083,24.69,74242.8,10.67,-3.59,-14.01,0,*7B
1500574102.04,24084,24.75,74242.0,10.67,-3.55,-14.01,0,*70
1500574103.24,24085,24.75,74244.0,10.67,-3.79,-14.23,0,*7F
1500574104.44,24086,24.75,74242.3,10.67,-3.83,-14.15,0,*7C
1500574105.63,24087,24.75,74242.0,10.63,-3.87,-14.11,0,*79
1500574106.86,24088,24.69,74242.8,10.63,-4.01,-14.23,0,*7E
1500574108.06,24089,24.75,74242.0,10.67,-3.95,-14.19,0,*78
1500574109.27,24090,24.75,74242.0,10.61,-4.13,-14.11,0,*77
1500574110.49,24091,24.75,74240.5,10.61,-4.25,-14.11,0,*73
1500574111.7,24092,24.69,74240.3,10.61,-4.41,-14.23,0,*73
1500574112.91,24093,24.69,74242.5,10.61,-4.49,-14.19,0,*73